TimeCDT,TemperatureF,Dew PointF,Humidity,Sea Level PressureIn,VisibilityMPH,Wind Direction,Wind SpeedMPH,Gust SpeedMPH,PrecipitationIn,Events,Conditions,WindDirDegrees,DateUTC
12:15 AM,24.8,21.2,86,30.01,10.0,West,6.9,-,N/A,,Overcast,270,2013-10-23 05:15:00
12:35 AM,26.6,23.0,86,30.02,10.0,West,5.8,-,N/A,,Overcast,280,2013-10-23 05:35:00
12:55 AM,28.4,23.0,80,30.01,10.0,WNW,5.8,-,N/A,,Overcast,290,2013-10-23 05:55:00
1:15 AM,28.4,24.8,86,30.01,10.0,WNW,8.1,-,N/A,,Mostly Cloudy,300,2013-10-23 06:15:00
1:35 AM,30.2,23.0,75,30.01,10.0,NW,6.9,-,N/A,,Mostly Cloudy,310,2013-10-23 06:35:00
1:55 AM,28.4,23.0,80,30.01,10.0,NW,6.9,-,N/A,,Overcast,310,2013-10-23 06:55:00
2:15 AM,28.4,23.0,80,30.01,10.0,NW,8.1,-,N/A,,Overcast,310,2013-10-23 07:15:00
2:35 AM,28.4,23.0,80,30.01,10.0,NW,6.9,-,N/A,,Overcast,320,2013-10-23 07:35:00
2:55 AM,28.4,24.8,86,30.02,10.0,NW,6.9,-,N/A,,Overcast,310,2013-10-23 07:55:00
3:15 AM,28.4,24.8,86,30.01,10.0,NW,6.9,-,N/A,,Overcast,320,2013-10-23 08:15:00
3:35 AM,28.4,24.8,86,30.02,10.0,NNW,5.8,-,N/A,,Overcast,330,2013-10-23 08:35:00
3:55 AM,28.4,24.8,86,30.02,10.0,NNW,5.8,-,N/A,,Overcast,330,2013-10-23 08:55:00
4:15 AM,28.4,23.0,80,30.01,10.0,NNW,6.9,-,N/A,,Mostly Cloudy,330,2013-10-23 09:15:00
4:35 AM,28.4,24.8,86,30.01,10.0,NW,5.8,-,N/A,,Mostly Cloudy,320,2013-10-23 09:35:00
4:55 AM,28.4,23.0,80,30.01,10.0,NW,6.9,-,N/A,,Mostly Cloudy,310,2013-10-23 09:55:00
5:15 AM,26.6,23.0,86,30.02,10.0,NW,5.8,-,N/A,,Mostly Cloudy,320,2013-10-23 10:15:00
5:35 AM,26.6,23.0,86,30.02,10.0,NW,8.1,-,N/A,,Partly Cloudy,320,2013-10-23 10:35:00
5:55 AM,24.8,23.0,93,30.02,10.0,NNW,6.9,-,N/A,,Clear,330,2013-10-23 10:55:00
6:15 AM,24.8,23.0,93,30.03,10.0,NNW,6.9,-,N/A,,Clear,330,2013-10-23 11:15:00
6:35 AM,24.8,21.2,86,30.03,10.0,NW,6.9,-,N/A,,Clear,320,2013-10-23 11:35:00
6:55 AM,24.8,23.0,93,30.03,10.0,NW,8.1,-,N/A,,Mostly Cloudy,320,2013-10-23 11:55:00
7:15 AM,24.8,23.0,93,30.04,10.0,NW,5.8,-,N/A,,Overcast,320,2013-10-23 12:15:00
7:35 AM,24.8,23.0,93,30.05,10.0,NNW,8.1,-,N/A,,Overcast,330,2013-10-23 12:35:00
7:55 AM,26.6,23.0,86,30.05,10.0,NNW,6.9,-,N/A,,Overcast,330,2013-10-23 12:55:00
8:15 AM,26.6,23.0,86,30.05,10.0,NW,6.9,-,N/A,,Overcast,320,2013-10-23 13:15:00
8:35 AM,26.6,24.8,93,30.06,10.0,NW,6.9,-,N/A,,Overcast,310,2013-10-23 13:35:00
8:55 AM,26.6,24.8,93,30.06,10.0,NW,8.1,-,N/A,,Overcast,310,2013-10-23 13:55:00
9:15 AM,28.4,24.8,86,30.06,10.0,NW,6.9,-,N/A,,Overcast,320,2013-10-23 14:15:00
9:35 AM,28.4,24.8,86,30.07,10.0,NW,6.9,-,N/A,,Overcast,310,2013-10-23 14:35:00
9:55 AM,28.4,24.8,86,30.07,10.0,NW,9.2,-,N/A,,Overcast,320,2013-10-23 14:55:00
10:15 AM,30.2,26.6,86,30.08,10.0,NW,9.2,-,N/A,,Overcast,310,2013-10-23 15:15:00
10:35 AM,30.2,26.6,86,30.08,10.0,NW,9.2,-,N/A,,Overcast,320,2013-10-23 15:35:00
10:55 AM,30.2,26.6,86,30.09,10.0,NNW,9.2,-,N/A,,Overcast,330,2013-10-23 15:55:00
11:15 AM,32.0,26.6,80,30.09,10.0,NW,10.4,-,N/A,,Overcast,320,2013-10-23 16:15:00
11:35 AM,32.0,26.6,80,30.09,9.0,NW,8.1,-,N/A,,Overcast,320,2013-10-23 16:35:00
11:55 AM,32.0,26.6,80,30.09,10.0,NNW,9.2,-,N/A,,Overcast,330,2013-10-23 16:55:00
12:15 PM,32.0,26.6,80,30.09,10.0,NW,10.4,-,N/A,,Overcast,320,2013-10-23 17:15:00
12:35 PM,32.0,26.6,80,30.10,10.0,NNW,10.4,-,N/A,,Overcast,330,2013-10-23 17:35:00
12:55 PM,32.0,26.6,80,30.10,10.0,NW,9.2,-,N/A,,Overcast,320,2013-10-23 17:55:00
1:15 PM,33.8,28.4,81,30.09,10.0,NW,10.4,-,N/A,,Overcast,320,2013-10-23 18:15:00
1:35 PM,33.8,28.4,81,30.08,10.0,NW,12.7,-,N/A,,Overcast,320,2013-10-23 18:35:00
1:55 PM,33.8,28.4,81,30.09,10.0,NNW,15.0,-,N/A,,Overcast,330,2013-10-23 18:55:00
2:15 PM,35.6,28.4,75,30.09,10.0,NW,12.7,19.6,N/A,,Overcast,320,2013-10-23 19:15:00
2:35 PM,35.6,28.4,75,30.08,10.0,NW,11.5,-,N/A,,Overcast,320,2013-10-23 19:35:00
2:55 PM,37.4,28.4,70,30.08,10.0,NNW,12.7,-,N/A,,Overcast,330,2013-10-23 19:55:00
3:15 PM,37.4,26.6,65,30.08,10.0,NNW,15.0,-,N/A,,Overcast,340,2013-10-23 20:15:00
3:35 PM,35.6,26.6,70,30.08,10.0,NNW,12.7,-,N/A,Rain,Light Rain,330,2013-10-23 20:35:00
3:55 PM,35.6,28.4,75,30.09,8.0,NW,15.0,18.4,N/A,Rain,Light Rain,310,2013-10-23 20:55:00
4:15 PM,35.6,32.0,87,30.09,3.0,NNW,11.5,-,0.02,Rain,Light Rain,330,2013-10-23 21:15:00
4:35 PM,35.6,30.2,81,30.09,10.0,NNW,16.1,-,0.02,,Overcast,340,2013-10-23 21:35:00
4:55 PM,35.6,32.0,87,30.10,8.0,NNW,15.0,-,0.02,Rain,Light Rain,330,2013-10-23 21:55:00
5:15 PM,35.6,30.2,81,30.10,10.0,NW,11.5,-,N/A,,Overcast,320,2013-10-23 22:15:00
5:35 PM,35.6,30.2,81,30.10,10.0,NNW,12.7,19.6,N/A,Rain,Light Rain,330,2013-10-23 22:35:00
5:55 PM,35.6,28.4,75,30.10,10.0,NNW,16.1,20.7,N/A,,Overcast,340,2013-10-23 22:55:00
6:15 PM,35.6,28.4,75,30.11,10.0,NNW,11.5,-,N/A,,Overcast,330,2013-10-23 23:15:00
6:35 PM,35.6,30.2,81,30.11,7.0,NNW,9.2,-,N/A,Snow,Light Snow,330,2013-10-23 23:35:00
6:55 PM,35.6,32.0,87,30.11,9.0,NW,9.2,-,0.01,Snow,Light Snow,320,2013-10-23 23:55:00
7:15 PM,33.8,32.0,93,30.12,10.0,NW,5.8,-,N/A,Snow,Light Snow,320,2013-10-24 00:15:00
7:35 PM,33.8,32.0,93,30.12,10.0,NW,5.8,-,N/A,,Overcast,310,2013-10-24 00:35:00
7:55 PM,33.8,30.2,87,30.12,10.0,NW,6.9,-,N/A,,Overcast,310,2013-10-24 00:55:00
8:15 PM,33.8,30.2,87,30.12,10.0,WNW,10.4,-,N/A,,Overcast,300,2013-10-24 01:15:00
8:35 PM,33.8,30.2,87,30.12,10.0,NW,10.4,-,N/A,,Overcast,310,2013-10-24 01:35:00
8:55 PM,33.8,28.4,81,30.12,10.0,NW,9.2,-,N/A,,Mostly Cloudy,310,2013-10-24 01:55:00
9:15 PM,33.8,28.4,81,30.13,10.0,WNW,8.1,-,N/A,,Overcast,300,2013-10-24 02:15:00
9:35 PM,33.8,28.4,81,30.13,10.0,WNW,6.9,-,N/A,,Overcast,290,2013-10-24 02:35:00
9:55 PM,33.8,28.4,81,30.13,10.0,NW,13.8,19.6,N/A,,Overcast,320,2013-10-24 02:55:00
10:15 PM,32.0,32.0,100,30.14,1.5,NW,11.5,-,0.12,Snow,Light Snow,310,2013-10-24 03:15:00
10:35 PM,32.0,32.0,100,30.13,10.0,WNW,8.1,-,0.13,,Mostly Cloudy,300,2013-10-24 03:35:00
10:55 PM,32.0,32.0,100,30.13,10.0,NW,10.4,-,0.13,,Overcast,310,2013-10-24 03:55:00
11:15 PM,32.0,32.0,100,30.13,10.0,WNW,10.4,-,N/A,,Overcast,300,2013-10-24 04:15:00
11:35 PM,32.0,32.0,100,30.14,10.0,WNW,8.1,-,N/A,,Overcast,300,2013-10-24 04:35:00
11:55 PM,32.0,32.0,100,30.14,10.0,WNW,9.2,-,N/A,,Overcast,290,2013-10-24 04:55:00